Year,Month,Day,Hour,Minute,Value (Times are PST for windspeed in km/hr)
2018,03,01,00,00,22.80
2018,03,01,00,01,27.00
2018,03,01,00,02,21.60
2018,03,01,00,03,18.90
2018,03,01,00,04,24.10
2018,03,01,00,05,23.30
2018,03,01,00,06,27.50
2018,03,01,00,07,21.10
2018,03,01,00,08,19.50
2018,03,01,00,09,21.60
2018,03,01,00,10,16.20
2018,03,01,00,11,18.90
2018,03,01,00,12,20.50
2018,03,01,00,13,20.30
2018,03,01,00,14,22.40
2018,03,01,00,15,25.20
2018,03,01,00,16,22.50
2018,03,01,00,17,20.30
2018,03,01,00,18,19.50
2018,03,01,00,19,21.40
2018,03,01,00,20,19.10
2018,03,01,00,21,14.00
2018,03,01,00,22,21.80
2018,03,01,00,23,22.40
2018,03,01,00,24,19.50
2018,03,01,00,25,23.80
2018,03,01,00,26,20.20
2018,03,01,00,27,21.30
2018,03,01,00,28,37.20
2018,03,01,00,29,23.80
2018,03,01,00,30,22.40
2018,03,01,00,31,19.90
2018,03,01,00,32,23.30
2018,03,01,00,33,23.40
2018,03,01,00,34,18.50
2018,03,01,00,35,17.40
2018,03,01,00,36,14.30
2018,03,01,00,37,15.70
2018,03,01,00,38,15.10
2018,03,01,00,39,16.20
2018,03,01,00,40,19.90
2018,03,01,00,41,17.40
2018,03,01,00,42,15.40
2018,03,01,00,43,15.30
2018,03,01,00,44,8.70
2018,03,01,00,45,13.50
2018,03,01,00,46,13.60
2018,03,01,00,47,7.70
2018,03,01,00,48,10.70
2018,03,01,00,49,9.30
2018,03,01,00,50,9.20
2018,03,01,00,51,9.90
2018,03,01,00,52,8.10
2018,03,01,00,53,8.60
2018,03,01,00,54,3.80
2018,03,01,00,55,3.40
2018,03,01,00,56,3.20
2018,03,01,00,57,7.00
2018,03,01,00,58,3.70
2018,03,01,00,59,4.70
2018,03,01,01,00,6.00
2018,03,01,01,01,3.40
2018,03,01,01,02,3.40
2018,03,01,01,03,2.00
2018,03,01,01,04,1.60
2018,03,01,01,05,1.80
2018,03,01,01,06,1.20
2018,03,01,01,07,2.00
2018,03,01,01,08,2.00
2018,03,01,01,09,5.10
2018,03,01,01,10,4.50
2018,03,01,01,11,5.60
2018,03,01,01,12,2.10
2018,03,01,01,13,2.30
2018,03,01,01,14,4.60
2018,03,01,01,15,3.50
2018,03,01,01,16,5.10
2018,03,01,01,17,5.80
2018,03,01,01,18,6.00
2018,03,01,01,19,0.50
2018,03,01,01,20,0.10
2018,03,01,01,21,0.60
2018,03,01,01,22,3.40
2018,03,01,01,23,7.20
2018,03,01,01,24,6.40
2018,03,01,01,25,5.40
2018,03,01,01,26,7.80
2018,03,01,01,27,9.30
2018,03,01,01,28,10.20
2018,03,01,01,29,9.30
2018,03,01,01,30,7.10
2018,03,01,01,31,8.90
2018,03,01,01,32,5.10
2018,03,01,01,33,5.90
2018,03,01,01,34,4.70
2018,03,01,01,35,7.50
2018,03,01,01,36,7.20
2018,03,01,01,37,5.50
2018,03,01,01,38,7.20
2018,03,01,01,39,7.10
2018,03,01,01,40,11.30
2018,03,01,01,41,8.30
2018,03,01,01,42,11.30
2018,03,01,01,43,11.00
2018,03,01,01,44,14.90
2018,03,01,01,45,10.30
2018,03,01,01,46,11.10
2018,03,01,01,47,13.80
2018,03,01,01,48,14.10
2018,03,01,01,49,8.60
2018,03,01,01,50,10.40
2018,03,01,01,51,9.00
2018,03,01,01,52,9.80
2018,03,01,01,53,8.70
2018,03,01,01,54,11.40
2018,03,01,01,55,11.00
2018,03,01,01,56,11.70
2018,03,01,01,57,13.70
2018,03,01,01,58,11.10
2018,03,01,01,59,11.00
2018,03,01,02,00,11.20
2018,03,01,02,01,13.60
2018,03,01,02,02,10.60
2018,03,01,02,03,7.30
2018,03,01,02,04,12.30
2018,03,01,02,05,11.50
2018,03,01,02,06,13.30
2018,03,01,02,07,9.80
2018,03,01,02,08,9.20
2018,03,01,02,09,10.10
2018,03,01,02,10,15.30
2018,03,01,02,11,10.50
2018,03,01,02,12,10.70
2018,03,01,02,13,9.80
2018,03,01,02,14,9.70
2018,03,01,02,15,9.10
2018,03,01,02,16,9.50
2018,03,01,02,17,9.40
2018,03,01,02,18,6.70
2018,03,01,02,19,8.00
2018,03,01,02,20,8.40
2018,03,01,02,21,5.20
2018,03,01,02,22,7.30
2018,03,01,02,23,5.50
2018,03,01,02,24,7.40
2018,03,01,02,25,6.00
2018,03,01,02,26,3.90
2018,03,01,02,27,5.70
2018,03,01,02,28,11.80
2018,03,01,02,29,14.20
2018,03,01,02,30,15.00
2018,03,01,02,31,11.60
2018,03,01,02,32,9.00
2018,03,01,02,33,6.00
2018,03,01,02,34,10.60
2018,03,01,02,35,12.40
2018,03,01,02,36,11.60
2018,03,01,02,37,7.60
2018,03,01,02,38,7.30
2018,03,01,02,39,5.00
2018,03,01,02,40,7.80
2018,03,01,02,41,5.30
2018,03,01,02,42,4.70
2018,03,01,02,43,7.60
2018,03,01,02,44,2.30
2018,03,01,02,45,1.20
2018,03,01,02,46,0.60
2018,03,01,02,47,2.00
2018,03,01,02,48,1.80
2018,03,01,02,49,0.00
2018,03,01,02,50,0.40
2018,03,01,02,51,4.10
2018,03,01,02,52,2.80
2018,03,01,02,53,3.50
2018,03,01,02,54,2.80
2018,03,01,02,55,2.00
2018,03,01,02,56,0.60
2018,03,01,02,57,0.10
2018,03,01,02,58,0.20
2018,03,01,02,59,2.40
2018,03,01,03,00,1.20
2018,03,01,03,01,1.60
2018,03,01,03,02,1.30
2018,03,01,03,03,0.80
2018,03,01,03,04,0.90
2018,03,01,03,05,0.60
2018,03,01,03,06,0.40
2018,03,01,03,07,0.30
2018,03,01,03,08,0.20
2018,03,01,03,09,0.00
2018,03,01,03,10,0.00
2018,03,01,03,11,2.40
2018,03,01,03,12,1.00
2018,03,01,03,13,0.00
2018,03,01,03,14,0.00
2018,03,01,03,15,0.00
2018,03,01,03,16,1.00
2018,03,01,03,17,0.00
2018,03,01,03,18,0.00
2018,03,01,03,19,0.40
2018,03,01,03,20,0.10
2018,03,01,03,21,0.10
2018,03,01,03,22,0.00
2018,03,01,03,23,0.00
2018,03,01,03,24,1.70
2018,03,01,03,25,2.30
2018,03,01,03,26,1.70
2018,03,01,03,27,0.20
2018,03,01,03,28,0.00
2018,03,01,03,29,0.50
2018,03,01,03,30,0.10
2018,03,01,03,31,0.40
2018,03,01,03,32,0.00
2018,03,01,03,33,0.00
2018,03,01,03,34,0.00
2018,03,01,03,35,1.00
2018,03,01,03,36,4.60
2018,03,01,03,37,5.10
2018,03,01,03,38,2.90
2018,03,01,03,39,0.50
2018,03,01,03,40,0.10
2018,03,01,03,41,0.90
2018,03,01,03,42,0.30
2018,03,01,03,43,3.80
2018,03,01,03,44,3.10
2018,03,01,03,45,3.20
2018,03,01,03,46,3.00
2018,03,01,03,47,0.20
2018,03,01,03,48,1.00
2018,03,01,03,49,1.00
2018,03,01,03,50,2.20
2018,03,01,03,51,2.70
2018,03,01,03,52,2.60
2018,03,01,03,53,0.90
2018,03,01,03,54,0.30
2018,03,01,03,55,1.00
2018,03,01,03,56,5.20
2018,03,01,03,57,5.30
2018,03,01,03,58,4.60
2018,03,01,03,59,3.80
2018,03,01,04,00,2.10
2018,03,01,04,01,4.00
2018,03,01,04,02,5.70
2018,03,01,04,03,5.50
2018,03,01,04,04,3.90
2018,03,01,04,05,4.60
2018,03,01,04,06,6.20
2018,03,01,04,07,5.50
2018,03,01,04,08,7.20
2018,03,01,04,09,4.90
2018,03,01,04,10,1.80
2018,03,01,04,11,1.30
2018,03,01,04,12,1.20
2018,03,01,04,13,1.60
2018,03,01,04,14,1.60
2018,03,01,04,15,2.20
2018,03,01,04,16,4.60
2018,03,01,04,17,2.10
2018,03,01,04,18,5.30
2018,03,01,04,19,3.10
2018,03,01,04,20,7.00
2018,03,01,04,21,6.30
2018,03,01,04,22,4.80
2018,03,01,04,23,4.40
2018,03,01,04,24,5.70
2018,03,01,04,25,2.30
2018,03,01,04,26,2.00
2018,03,01,04,27,0.00
2018,03,01,04,28,0.00
2018,03,01,04,29,0.00
2018,03,01,04,30,0.10
2018,03,01,04,31,0.00
2018,03,01,04,32,0.00
2018,03,01,04,33,3.80
2018,03,01,04,34,4.30
2018,03,01,04,35,4.90
2018,03,01,04,36,3.10
2018,03,01,04,37,1.30
2018,03,01,04,38,2.60
2018,03,01,04,39,2.60
2018,03,01,04,40,3.40
2018,03,01,04,41,4.10
2018,03,01,04,42,3.00
2018,03,01,04,43,9.50
2018,03,01,04,44,7.50
2018,03,01,04,45,3.70
2018,03,01,04,46,2.70
2018,03,01,04,47,7.10
2018,03,01,04,48,4.50
2018,03,01,04,49,4.00
2018,03,01,04,50,4.60
2018,03,01,04,51,5.00
2018,03,01,04,52,4.40
2018,03,01,04,53,3.70
2018,03,01,04,54,4.90
2018,03,01,04,55,3.40
2018,03,01,04,56,2.70
2018,03,01,04,57,2.90
2018,03,01,04,58,2.80
2018,03,01,04,59,3.60
2018,03,01,05,00,3.40
2018,03,01,05,01,1.90
2018,03,01,05,02,0.40
2018,03,01,05,03,0.80
2018,03,01,05,04,0.50
2018,03,01,05,05,0.00
2018,03,01,05,06,0.00
2018,03,01,05,07,1.00
2018,03,01,05,08,0.00
2018,03,01,05,09,0.00
2018,03,01,05,10,0.30
2018,03,01,05,11,1.20
2018,03,01,05,12,1.90
2018,03,01,05,13,0.00
2018,03,01,05,14,2.70
2018,03,01,05,15,2.70
2018,03,01,05,16,0.00
2018,03,01,05,17,0.00
2018,03,01,05,18,0.20
2018,03,01,05,19,2.50
2018,03,01,05,20,0.70
2018,03,01,05,21,2.90
2018,03,01,05,22,2.80
2018,03,01,05,23,2.30
2018,03,01,05,24,2.80
2018,03,01,05,25,2.10
2018,03,01,05,26,1.50
2018,03,01,05,27,1.30
2018,03,01,05,28,0.40
2018,03,01,05,29,0.00
2018,03,01,05,30,0.00
2018,03,01,05,31,0.30
2018,03,01,05,32,1.90
2018,03,01,05,33,0.10
2018,03,01,05,34,0.00
2018,03,01,05,35,0.00
2018,03,01,05,36,0.00
2018,03,01,05,37,0.00
2018,03,01,05,38,0.00
2018,03,01,05,39,0.00
2018,03,01,05,40,0.20
2018,03,01,05,41,0.80
2018,03,01,05,42,2.30
2018,03,01,05,43,1.80
2018,03,01,05,44,0.50
2018,03,01,05,45,0.00
2018,03,01,05,46,0.00
2018,03,01,05,47,0.00
2018,03,01,05,48,0.00
2018,03,01,05,49,0.30
2018,03,01,05,50,1.20
2018,03,01,05,51,2.20
2018,03,01,05,52,2.90
2018,03,01,05,53,1.10
2018,03,01,05,54,0.00
2018,03,01,05,55,0.00
2018,03,01,05,56,1.40
2018,03,01,05,57,1.50
2018,03,01,05,58,2.50
2018,03,01,05,59,1.80
2018,03,01,06,00,0.00
2018,03,01,06,01,0.00
2018,03,01,06,02,0.00
2018,03,01,06,03,0.00
2018,03,01,06,04,0.00
2018,03,01,06,05,0.10
2018,03,01,06,06,0.00
2018,03,01,06,07,0.00
2018,03,01,06,08,0.00
2018,03,01,06,09,2.20
2018,03,01,06,10,3.70
2018,03,01,06,11,4.50
2018,03,01,06,12,4.70
2018,03,01,06,13,4.30
2018,03,01,06,14,3.20
2018,03,01,06,15,3.20
2018,03,01,06,16,1.10
2018,03,01,06,17,0.10
2018,03,01,06,18,1.60
2018,03,01,06,19,3.00
2018,03,01,06,20,2.20
2018,03,01,06,21,1.10
2018,03,01,06,22,0.00
2018,03,01,06,23,0.80
2018,03,01,06,24,0.20
2018,03,01,06,25,0.20
2018,03,01,06,26,1.00
2018,03,01,06,27,3.20
2018,03,01,06,28,3.20
2018,03,01,06,29,1.20
2018,03,01,06,30,0.90
2018,03,01,06,31,0.20
2018,03,01,06,32,0.10
2018,03,01,06,33,0.00
2018,03,01,06,34,0.00
2018,03,01,06,35,0.00
2018,03,01,06,36,0.00
2018,03,01,06,37,0.00
2018,03,01,06,38,0.00
2018,03,01,06,39,0.00
2018,03,01,06,40,0.00
2018,03,01,06,41,0.00
2018,03,01,06,42,0.00
2018,03,01,06,43,0.00
2018,03,01,06,44,0.90
2018,03,01,06,45,2.40
2018,03,01,06,46,2.60
2018,03,01,06,47,2.10
2018,03,01,06,48,1.30
2018,03,01,06,49,0.00
2018,03,01,06,50,0.00
2018,03,01,06,51,0.00
2018,03,01,06,52,0.00
2018,03,01,06,53,0.00
2018,03,01,06,54,0.00
2018,03,01,06,55,0.00
2018,03,01,06,56,0.00
2018,03,01,06,57,0.00
2018,03,01,06,58,0.00
2018,03,01,06,59,0.00
2018,03,01,07,00,1.90
2018,03,01,07,01,1.90
2018,03,01,07,02,1.70
2018,03,01,07,03,1.90
2018,03,01,07,04,1.10
2018,03,01,07,05,0.00
2018,03,01,07,06,0.00
2018,03,01,07,07,0.00
2018,03,01,07,08,0.30
2018,03,01,07,09,0.60
2018,03,01,07,10,0.00
2018,03,01,07,11,0.00
2018,03,01,07,12,0.70
2018,03,01,07,13,1.30
2018,03,01,07,14,1.00
2018,03,01,07,15,1.80
2018,03,01,07,16,2.20
2018,03,01,07,17,2.10
2018,03,01,07,18,2.60
2018,03,01,07,19,1.60
2018,03,01,07,20,0.00
2018,03,01,07,21,0.00
2018,03,01,07,22,0.00
2018,03,01,07,23,0.00
2018,03,01,07,24,0.00
2018,03,01,07,25,0.00
2018,03,01,07,26,0.00
2018,03,01,07,27,0.10
2018,03,01,07,28,0.00
2018,03,01,07,29,0.00
2018,03,01,07,30,0.00
2018,03,01,07,31,0.00
2018,03,01,07,32,0.00
2018,03,01,07,33,0.00
2018,03,01,07,34,0.00
2018,03,01,07,35,0.00
2018,03,01,07,36,0.20
2018,03,01,07,37,0.30
2018,03,01,07,38,1.10
2018,03,01,07,39,0.00
2018,03,01,07,40,0.20
2018,03,01,07,41,0.20
2018,03,01,07,42,0.00
2018,03,01,07,43,1.70
2018,03,01,07,44,0.30
2018,03,01,07,45,0.00
2018,03,01,07,46,0.30
2018,03,01,07,47,1.40
2018,03,01,07,48,1.10
2018,03,01,07,49,4.50
2018,03,01,07,50,2.60
2018,03,01,07,51,1.20
2018,03,01,07,52,3.10
2018,03,01,07,53,3.20
2018,03,01,07,54,4.10
2018,03,01,07,55,7.50
2018,03,01,07,56,5.50
2018,03,01,07,57,5.30
2018,03,01,07,58,5.20
2018,03,01,07,59,7.40
2018,03,01,08,00,6.10
2018,03,01,08,01,4.10
2018,03,01,08,02,3.40
2018,03,01,08,03,3.80
2018,03,01,08,04,3.60
2018,03,01,08,05,4.30
2018,03,01,08,06,9.20
2018,03,01,08,07,7.40
2018,03,01,08,08,4.80
2018,03,01,08,09,8.10
2018,03,01,08,10,10.80
2018,03,01,08,11,9.80
2018,03,01,08,12,8.70
2018,03,01,08,13,11.10
2018,03,01,08,14,10.40
2018,03,01,08,15,11.40
2018,03,01,08,16,11.00
2018,03,01,08,17,10.20
2018,03,01,08,18,7.90
2018,03,01,08,19,9.20
2018,03,01,08,20,14.00
2018,03,01,08,21,13.90
2018,03,01,08,22,10.40
2018,03,01,08,23,13.60
2018,03,01,08,24,8.50
2018,03,01,08,25,15.20
2018,03,01,08,26,10.90
2018,03,01,08,27,10.80
2018,03,01,08,28,10.50
2018,03,01,08,29,10.00
2018,03,01,08,30,10.00
2018,03,01,08,31,4.30
2018,03,01,08,32,7.40
2018,03,01,08,33,10.20
2018,03,01,08,34,9.60
2018,03,01,08,35,12.70
2018,03,01,08,36,12.60
2018,03,01,08,37,9.20
2018,03,01,08,38,9.00
2018,03,01,08,39,7.10
2018,03,01,08,40,6.40
2018,03,01,08,41,9.30
2018,03,01,08,42,10.30
2018,03,01,08,43,7.10
2018,03,01,08,44,9.30
2018,03,01,08,45,11.60
2018,03,01,08,46,11.10
2018,03,01,08,47,8.50
2018,03,01,08,48,7.50
2018,03,01,08,49,7.90
2018,03,01,08,50,11.30
2018,03,01,08,51,9.40
2018,03,01,08,52,10.50
2018,03,01,08,53,9.70
2018,03,01,08,54,8.60
2018,03,01,08,55,12.30
2018,03,01,08,56,9.80
2018,03,01,08,57,11.20
2018,03,01,08,58,8.40
2018,03,01,08,59,12.00
2018,03,01,09,00,7.70
2018,03,01,09,01,6.70
2018,03,01,09,02,10.90
2018,03,01,09,03,9.80
2018,03,01,09,04,9.30
2018,03,01,09,05,11.80
2018,03,01,09,06,7.60
2018,03,01,09,07,9.20
2018,03,01,09,08,9.80
2018,03,01,09,09,7.50
2018,03,01,09,10,11.00
2018,03,01,09,11,9.70
2018,03,01,09,12,13.90
2018,03,01,09,13,10.50
2018,03,01,09,14,13.60
2018,03,01,09,15,10.10
2018,03,01,09,16,13.90
2018,03,01,09,17,10.10
2018,03,01,09,18,11.90
2018,03,01,09,19,10.20
2018,03,01,09,20,5.10
2018,03,01,09,21,4.20
2018,03,01,09,22,9.70
2018,03,01,09,23,8.00
2018,03,01,09,24,6.90
2018,03,01,09,25,7.50
2018,03,01,09,26,4.90
2018,03,01,09,27,5.30
2018,03,01,09,28,8.90
2018,03,01,09,29,10.60
2018,03,01,09,30,10.20
2018,03,01,09,31,8.70
2018,03,01,09,32,6.60
2018,03,01,09,33,8.70
2018,03,01,09,34,10.70
2018,03,01,09,35,9.70
2018,03,01,09,36,10.20
2018,03,01,09,37,8.00
2018,03,01,09,38,10.00
2018,03,01,09,39,10.00
2018,03,01,09,40,7.30
2018,03,01,09,41,9.10
2018,03,01,09,42,6.90
2018,03,01,09,43,8.40
2018,03,01,09,44,7.70
2018,03,01,09,45,9.20
2018,03,01,09,46,10.70
2018,03,01,09,47,10.40
2018,03,01,09,48,9.90
2018,03,01,09,49,9.80
2018,03,01,09,50,10.70
2018,03,01,09,51,11.50
2018,03,01,09,52,9.30
2018,03,01,09,53,8.90
2018,03,01,09,54,8.70
2018,03,01,09,55,11.80
2018,03,01,09,56,11.30
2018,03,01,09,57,13.60
2018,03,01,09,58,11.30
2018,03,01,09,59,13.80
2018,03,01,10,00,11.30
2018,03,01,10,01,8.40
2018,03,01,10,02,7.50
2018,03,01,10,03,11.60
2018,03,01,10,04,12.60
2018,03,01,10,05,14.30
2018,03,01,10,06,11.70
2018,03,01,10,07,9.70
2018,03,01,10,08,8.70
2018,03,01,10,09,7.60
2018,03,01,10,10,10.80
2018,03,01,10,11,9.40
2018,03,01,10,12,11.60
2018,03,01,10,13,11.50
2018,03,01,10,14,9.20
2018,03,01,10,15,11.40
2018,03,01,10,16,12.90
2018,03,01,10,17,7.90
2018,03,01,10,18,11.70
2018,03,01,10,19,16.00
2018,03,01,10,20,11.90
2018,03,01,10,21,13.00
2018,03,01,10,22,11.60
2018,03,01,10,23,8.70
2018,03,01,10,24,10.90
2018,03,01,10,25,12.20
2018,03,01,10,26,12.90
2018,03,01,10,27,8.20
2018,03,01,10,28,10.40
2018,03,01,10,29,8.00
2018,03,01,10,30,9.80
2018,03,01,10,31,9.70
2018,03,01,10,32,8.70
2018,03,01,10,33,9.60
2018,03,01,10,34,8.40
2018,03,01,10,35,11.30
2018,03,01,10,36,13.20
2018,03,01,10,37,9.70
2018,03,01,10,38,6.00
2018,03,01,10,39,9.00
2018,03,01,10,40,9.90
2018,03,01,10,41,10.00
2018,03,01,10,42,8.60
2018,03,01,10,43,10.50
2018,03,01,10,44,10.30
2018,03,01,10,45,10.50
2018,03,01,10,46,5.60
2018,03,01,10,47,7.10
2018,03,01,10,48,6.90
2018,03,01,10,49,8.40
2018,03,01,10,50,7.80
2018,03,01,10,51,8.50
2018,03,01,10,52,7.70
2018,03,01,10,53,9.20
2018,03,01,10,54,8.90
2018,03,01,10,55,6.40
2018,03,01,10,56,7.40
2018,03,01,10,57,7.60
2018,03,01,10,58,8.40
2018,03,01,10,59,8.80
2018,03,01,11,00,9.70
2018,03,01,11,01,8.10
2018,03,01,11,02,8.90
2018,03,01,11,03,9.40
2018,03,01,11,04,9.30
2018,03,01,11,05,13.80
2018,03,01,11,06,12.00
2018,03,01,11,07,10.60
2018,03,01,11,08,8.90
2018,03,01,11,09,8.90
2018,03,01,11,10,11.10
2018,03,01,11,11,6.10
2018,03,01,11,12,7.70
2018,03,01,11,13,7.60
2018,03,01,11,14,10.00
2018,03,01,11,15,8.70
2018,03,01,11,16,7.30
2018,03,01,11,17,10.50
2018,03,01,11,18,9.10
2018,03,01,11,19,9.80
2018,03,01,11,20,10.30
2018,03,01,11,21,8.10
2018,03,01,11,22,7.10
2018,03,01,11,23,7.00
2018,03,01,11,24,7.50
2018,03,01,11,25,7.20
2018,03,01,11,26,6.40
2018,03,01,11,27,6.20
2018,03,01,11,28,8.60
2018,03,01,11,29,7.80
2018,03,01,11,30,5.20
2018,03,01,11,31,6.10
2018,03,01,11,32,9.80
2018,03,01,11,33,10.20
2018,03,01,11,34,11.60
2018,03,01,11,35,5.80
2018,03,01,11,36,7.50
2018,03,01,11,37,11.10
2018,03,01,11,38,9.60
2018,03,01,11,39,6.70
2018,03,01,11,40,8.60
2018,03,01,11,41,6.20
2018,03,01,11,42,5.50
2018,03,01,11,43,7.40
2018,03,01,11,44,7.30
2018,03,01,11,45,8.70
2018,03,01,11,46,9.80
2018,03,01,11,47,10.70
2018,03,01,11,48,11.00
2018,03,01,11,49,8.30
2018,03,01,11,50,9.00
2018,03,01,11,51,7.50
2018,03,01,11,52,6.50
2018,03,01,11,53,8.20
2018,03,01,11,54,9.30
2018,03,01,11,55,10.00
2018,03,01,11,56,6.80
2018,03,01,11,57,8.30
2018,03,01,11,58,6.50
2018,03,01,11,59,6.90
2018,03,01,12,00,7.00
2018,03,01,12,01,5.40
2018,03,01,12,02,6.70
2018,03,01,12,03,6.30
2018,03,01,12,04,6.70
2018,03,01,12,05,8.60
2018,03,01,12,06,8.20
2018,03,01,12,07,7.90
2018,03,01,12,08,5.70
2018,03,01,12,09,5.10
2018,03,01,12,10,9.40
2018,03,01,12,11,10.30
2018,03,01,12,12,8.10
2018,03,01,12,13,10.00
2018,03,01,12,14,7.20
2018,03,01,12,15,9.40
2018,03,01,12,16,4.30
2018,03,01,12,17,4.20
2018,03,01,12,18,5.50
2018,03,01,12,19,5.00
2018,03,01,12,20,9.80
2018,03,01,12,21,4.80
2018,03,01,12,22,1.90
2018,03,01,12,23,10.70
2018,03,01,12,24,11.00
2018,03,01,12,25,11.60
2018,03,01,12,26,12.60
2018,03,01,12,27,8.00
2018,03,01,12,28,9.00
2018,03,01,12,29,10.40
2018,03,01,12,30,21.10
2018,03,01,12,31,12.00
2018,03,01,12,32,9.00
2018,03,01,12,33,8.50
2018,03,01,12,34,6.10
2018,03,01,12,35,10.40
2018,03,01,12,36,12.80
2018,03,01,12,37,14.00
2018,03,01,12,38,9.20
2018,03,01,12,39,8.50
2018,03,01,12,40,7.20
2018,03,01,12,41,10.70
2018,03,01,12,42,14.30
2018,03,01,12,43,10.10
2018,03,01,12,44,11.80
2018,03,01,12,45,8.80
2018,03,01,12,46,7.70
2018,03,01,12,47,5.60
2018,03,01,12,48,7.70
2018,03,01,12,49,5.70
2018,03,01,12,50,7.10
2018,03,01,12,51,11.20
2018,03,01,12,52,7.00
2018,03,01,12,53,12.20
2018,03,01,12,54,12.10
2018,03,01,12,55,12.90
2018,03,01,12,56,10.20
2018,03,01,12,57,15.20
2018,03,01,12,58,15.20
2018,03,01,12,59,20.20
2018,03,01,13,00,16.80
2018,03,01,13,01,16.10
2018,03,01,13,02,12.60
2018,03,01,13,03,12.40
2018,03,01,13,04,13.90
2018,03,01,13,05,17.90
2018,03,01,13,06,16.60
2018,03,01,13,07,11.80
2018,03,01,13,08,16.70
2018,03,01,13,09,10.90
2018,03,01,13,10,12.00
2018,03,01,13,11,18.70
2018,03,01,13,12,16.70
2018,03,01,13,13,16.60
2018,03,01,13,14,13.40
2018,03,01,13,15,11.90
2018,03,01,13,16,8.70
2018,03,01,13,17,10.70
2018,03,01,13,18,14.80
2018,03,01,13,19,11.30
2018,03,01,13,20,11.00
2018,03,01,13,21,16.40
2018,03,01,13,22,13.40
2018,03,01,13,23,16.50
2018,03,01,13,24,12.60
2018,03,01,13,25,11.90
2018,03,01,13,26,17.00
2018,03,01,13,27,13.20
2018,03,01,13,28,11.50
2018,03,01,13,29,3.90
2018,03,01,13,30,10.50
2018,03,01,13,31,12.80
2018,03,01,13,32,10.20
2018,03,01,13,33,9.10
2018,03,01,13,34,12.80
2018,03,01,13,35,13.00
2018,03,01,13,36,10.40
2018,03,01,13,37,11.60
2018,03,01,13,38,5.70
2018,03,01,13,39,17.10
2018,03,01,13,40,13.20
2018,03,01,13,41,11.80
2018,03,01,13,42,9.00
2018,03,01,13,43,8.60
2018,03,01,13,44,9.10
2018,03,01,13,45,10.00
2018,03,01,13,46,8.20
2018,03,01,13,47,8.50
2018,03,01,13,48,4.20
2018,03,01,13,49,3.90
2018,03,01,13,50,4.70
2018,03,01,13,51,8.30
2018,03,01,13,52,5.00
2018,03,01,13,53,3.80
2018,03,01,13,54,4.90
2018,03,01,13,55,7.70
2018,03,01,13,56,11.90
2018,03,01,13,57,8.40
2018,03,01,13,58,6.80
2018,03,01,13,59,8.80
2018,03,01,14,00,11.90
2018,03,01,14,01,7.60
2018,03,01,14,02,10.40
2018,03,01,14,03,10.90
2018,03,01,14,04,8.40
2018,03,01,14,05,7.80
2018,03,01,14,06,6.80
2018,03,01,14,07,6.80
2018,03,01,14,08,6.40
2018,03,01,14,09,5.20
2018,03,01,14,10,6.40
2018,03,01,14,11,12.00
2018,03,01,14,12,5.50
2018,03,01,14,13,10.20
2018,03,01,14,14,10.60
2018,03,01,14,15,10.10
2018,03,01,14,16,8.10
2018,03,01,14,17,6.20
2018,03,01,14,18,7.50
2018,03,01,14,19,7.40
2018,03,01,14,20,6.30
2018,03,01,14,21,9.20
2018,03,01,14,22,10.70
2018,03,01,14,23,11.20
2018,03,01,14,24,7.70
2018,03,01,14,25,8.10
2018,03,01,14,26,8.30
2018,03,01,14,27,6.90
2018,03,01,14,28,8.50
2018,03,01,14,29,6.30
2018,03,01,14,30,7.40
2018,03,01,14,31,4.30
2018,03,01,14,32,5.90
2018,03,01,14,33,5.90
2018,03,01,14,34,7.50
2018,03,01,14,35,4.20
2018,03,01,14,36,5.50
2018,03,01,14,37,5.60
2018,03,01,14,38,4.10
2018,03,01,14,39,6.00
2018,03,01,14,40,6.70
2018,03,01,14,41,10.10
2018,03,01,14,42,8.40
2018,03,01,14,43,6.20
2018,03,01,14,44,8.40
2018,03,01,14,45,10.30
2018,03,01,14,46,6.30
2018,03,01,14,47,10.60
2018,03,01,14,48,6.40
2018,03,01,14,49,8.40
2018,03,01,14,50,10.80
2018,03,01,14,51,8.50
2018,03,01,14,52,8.90
2018,03,01,14,53,11.40
2018,03,01,14,54,10.70
2018,03,01,14,55,12.00
2018,03,01,14,56,14.20
2018,03,01,14,57,11.70
2018,03,01,14,58,9.80
2018,03,01,14,59,10.30
2018,03,01,15,00,12.60
2018,03,01,15,01,12.20
2018,03,01,15,02,12.60
2018,03,01,15,03,10.80
2018,03,01,15,04,11.30
2018,03,01,15,05,13.10
2018,03,01,15,06,8.10
2018,03,01,15,07,12.90
2018,03,01,15,08,11.50
2018,03,01,15,09,13.60
2018,03,01,15,10,12.20
2018,03,01,15,11,11.30
2018,03,01,15,12,11.30
2018,03,01,15,13,10.50
2018,03,01,15,14,11.10
2018,03,01,15,15,9.50
2018,03,01,15,16,9.90
2018,03,01,15,17,7.90
2018,03,01,15,18,7.80
2018,03,01,15,19,9.20
2018,03,01,15,20,11.40
2018,03,01,15,21,10.80
2018,03,01,15,22,9.30
2018,03,01,15,23,8.40
2018,03,01,15,24,8.70
2018,03,01,15,25,10.40
2018,03,01,15,26,10.60
2018,03,01,15,27,9.50
2018,03,01,15,28,9.40
2018,03,01,15,29,10.60
2018,03,01,15,30,7.80
2018,03,01,15,31,11.90
2018,03,01,15,32,13.80
2018,03,01,15,33,13.40
2018,03,01,15,34,11.10
2018,03,01,15,35,10.90
2018,03,01,15,36,10.80
2018,03,01,15,37,9.40
2018,03,01,15,38,8.40
2018,03,01,15,39,7.80
2018,03,01,15,40,14.00
2018,03,01,15,41,10.80
2018,03,01,15,42,10.20
2018,03,01,15,43,11.70
2018,03,01,15,44,11.50
2018,03,01,15,45,10.40
2018,03,01,15,46,10.50
2018,03,01,15,47,10.70
2018,03,01,15,48,9.70
2018,03,01,15,49,8.70
2018,03,01,15,50,8.60
2018,03,01,15,51,8.80
2018,03,01,15,52,8.10
2018,03,01,15,53,8.20
2018,03,01,15,54,4.00
2018,03,01,15,55,8.50
2018,03,01,15,56,7.60
2018,03,01,15,57,5.00
2018,03,01,15,58,7.00
2018,03,01,15,59,9.40
2018,03,01,16,00,8.50
2018,03,01,16,01,10.10
2018,03,01,16,02,7.90
2018,03,01,16,03,7.50
2018,03,01,16,04,6.80
2018,03,01,16,05,5.10
2018,03,01,16,06,5.40
2018,03,01,16,07,6.80
2018,03,01,16,08,5.30
2018,03,01,16,09,6.90
2018,03,01,16,10,6.00
2018,03,01,16,11,7.10
2018,03,01,16,12,3.10
2018,03,01,16,13,5.60
2018,03,01,16,14,6.70
2018,03,01,16,15,7.00
2018,03,01,16,16,5.00
2018,03,01,16,17,6.80
2018,03,01,16,18,5.20
2018,03,01,16,19,5.00
2018,03,01,16,20,5.40
2018,03,01,16,21,4.50
2018,03,01,16,22,4.30
2018,03,01,16,23,3.00
2018,03,01,16,24,2.50
2018,03,01,16,25,4.00
2018,03,01,16,26,7.40
2018,03,01,16,27,8.20
2018,03,01,16,28,10.70
2018,03,01,16,29,10.10
2018,03,01,16,30,11.80
2018,03,01,16,31,8.00
2018,03,01,16,32,7.30
2018,03,01,16,33,7.30
2018,03,01,16,34,5.60
2018,03,01,16,35,6.10
2018,03,01,16,36,6.00
2018,03,01,16,37,8.10
2018,03,01,16,38,10.00
2018,03,01,16,39,5.90
2018,03,01,16,40,6.70
2018,03,01,16,41,10.00
2018,03,01,16,42,8.90
2018,03,01,16,43,7.00
2018,03,01,16,44,7.80
2018,03,01,16,45,9.40
2018,03,01,16,46,10.70
2018,03,01,16,47,10.30
2018,03,01,16,48,9.60
2018,03,01,16,49,7.60
2018,03,01,16,50,9.80
2018,03,01,16,51,7.60
2018,03,01,16,52,8.80
2018,03,01,16,53,7.80
2018,03,01,16,54,8.40
2018,03,01,16,55,9.50
2018,03,01,16,56,6.80
2018,03,01,16,57,4.30
2018,03,01,16,58,5.60
2018,03,01,16,59,9.40
2018,03,01,17,00,7.30
2018,03,01,17,01,7.10
2018,03,01,17,02,6.50
2018,03,01,17,03,8.60
2018,03,01,17,04,7.30
2018,03,01,17,05,4.80
2018,03,01,17,06,6.50
2018,03,01,17,07,6.60
2018,03,01,17,08,6.10
2018,03,01,17,09,5.20
2018,03,01,17,10,8.90
2018,03,01,17,11,7.60
2018,03,01,17,12,7.00
2018,03,01,17,13,6.00
2018,03,01,17,14,6.20
2018,03,01,17,15,7.00
2018,03,01,17,16,6.80
2018,03,01,17,17,5.70
2018,03,01,17,18,5.70
2018,03,01,17,19,7.20
2018,03,01,17,20,9.20
2018,03,01,17,21,9.70
2018,03,01,17,22,7.30
2018,03,01,17,23,3.10
2018,03,01,17,24,4.70
2018,03,01,17,25,4.90
2018,03,01,17,26,4.80
2018,03,01,17,27,3.90
2018,03,01,17,28,7.30
2018,03,01,17,29,5.30
2018,03,01,17,30,6.10
2018,03,01,17,31,6.40
2018,03,01,17,32,5.90
2018,03,01,17,33,2.60
2018,03,01,17,34,1.90
2018,03,01,17,35,3.20
2018,03,01,17,36,5.30
2018,03,01,17,37,5.00
2018,03,01,17,38,2.90
2018,03,01,17,39,5.80
2018,03,01,17,40,4.90
2018,03,01,17,41,5.10
2018,03,01,17,42,7.10
2018,03,01,17,43,5.70
2018,03,01,17,44,6.10
2018,03,01,17,45,5.40
2018,03,01,17,46,6.90
2018,03,01,17,47,4.30
2018,03,01,17,48,5.30
2018,03,01,17,49,4.70
2018,03,01,17,50,4.90
2018,03,01,17,51,4.50
2018,03,01,17,52,5.20
2018,03,01,17,53,4.00